Location: Caserta
(41.0670°N, 14.3330°E)
Time: 01:07:07
(UTC+01:00)

STARLINK-1329 - Pass Details

Date: 03 October 2020
Orbit: 548 x 551 km, 53.0° (Epoch: 27 October)

Event Time Altitude Azimuth Distance (km) Brightness Sun altitude
Exits shadow 05:17:51 24° 329° (NNW) 1,175 5.1 -20.3°
Maximum altitude 05:18:17 24° 339° (NNW) 1,162 5.2 -20.2°
Drops below altitude 10° 05:21:42 10° 35° (NE) 1,828 6.9 -19.6°
Sets 05:24:17 0° 49° (NE) 2,725 8.2 -19.1°
